Total_Precipitation_Accumulation
0.00 0.00 0.00 0.00 0.00 0.00 0.01 0.01 0.01 0.01 0.01 0.01 0.03 0.06 0.08 0.11 0.13 0.14 0.17 0.22 0.25 0.27 0.32 0.39 0.43 0.46 0.50 0.48 0.46 0.42 0.40 0.45 0.42 0.11 0.03 0.05 0.14 0.20 0.21 0.21 0.23 0.22 0.19
0.00 0.00 0.00 0.00 0.00 0.00 0.01 0.01 0.01 0.01 0.01 0.02 0.06 0.12 0.15 0.18 0.18 0.19 0.22 0.32 0.44 0.44 0.42 0.44 0.46 0.50 0.56 0.58 0.59 0.53 0.43 0.37 0.40 0.25 0.07 0.05 0.11 0.21 0.27 0.26 0.25 0.23 0.20
0.00 0.00 0.00 0.00 0.00 0.00 0.00 0.00 0.00 0.01 0.01 0.02 0.08 0.19 0.25 0.30 0.30 0.28 0.31 0.37 0.52 0.65 0.68 0.68 0.63 0.58 0.60 0.60 0.63 0.60 0.51 0.41 0.37 0.34 0.18 0.09 0.11 0.21 0.33 0.36 0.32 0.28 0.24
0.00 0.00 0.00 0.00 0.00 0.00 0.00 0.00 0.00 0.01 0.02 0.04 0.09 0.19 0.29 0.41 0.53 0.55 0.58 0.55 0.58 0.67 0.74 0.79 0.80 0.82 0.78 0.72 0.71 0.66 0.61 0.57 0.49 0.44 0.32 0.20 0.17 0.22 0.38 0.46 0.41 0.34 0.30
0.00 0.00 0.00 0.00 0.00 0.00 0.00 0.00 0.00 0.01 0.02 0.05 0.06 0.11 0.21 0.48 0.88 0.91 0.82 0.74 0.62 0.54 0.54 0.57 0.67 0.83 0.91 0.96 1.00 0.90 0.84 0.86 0.76 0.66 0.53 0.39 0.30 0.34 0.45 0.51 0.57 0.50 0.42
0.00 0.00 0.00 0.00 0.00 0.00 0.00 0.00 0.00 0.01 0.02 0.04 0.04 0.06 0.14 0.42 0.84 0.91 0.70 0.52 0.38 0.36 0.37 0.36 0.39 0.55 0.67 0.78 0.92 0.94 0.99 1.13 1.15 1.02 0.80 0.61 0.43 0.40 0.47 0.61 0.73 0.77 0.64
0.00 0.00 0.00 0.00 0.00 0.00 0.00 0.00 0.00 0.01 0.02 0.04 0.03 0.03 0.06 0.26 0.65 0.75 0.53 0.31 0.21 0.20 0.21 0.22 0.23 0.32 0.43 0.48 0.58 0.67 0.77 0.93 1.12 1.19 1.11 0.81 0.58 0.45 0.57 0.71 0.74 0.78 0.69
0.00 0.00 0.00 0.00 0.00 0.00 0.00 0.00 0.01 0.01 0.02 0.03 0.03 0.02 0.03 0.12 0.50 0.67 0.49 0.24 0.15 0.14 0.16 0.15 0.12 0.17 0.30 0.43 0.53 0.55 0.55 0.67 0.95 1.18 1.31 1.13 0.88 0.73 0.79 0.91 0.94 0.89 0.82
0.00 0.00 0.00 0.00 0.00 0.00 0.01 0.01 0.01 0.01 0.01 0.02 0.02 0.02 0.02 0.04 0.32 0.66 0.57 0.26 0.15 0.12 0.14 0.16 0.11 0.10 0.24 0.38 0.41 0.39 0.35 0.44 0.60 0.87 1.05 1.07 1.00 1.00 1.05 1.25 1.33 1.25 1.18
0.00 0.00 0.00 0.00 0.00 0.01 0.01 0.01 0.01 0.02 0.02 0.02 0.01 0.01 0.01 0.02 0.17 0.58 0.72 0.33 0.17 0.13 0.12 0.13 0.17 0.20 0.27 0.32 0.30 0.31 0.35 0.35 0.36 0.42 0.52 0.61 0.71 0.79 0.99 1.25 1.37 1.34 1.34
0.00 0.00 0.00 0.00 0.00 0.01 0.01 0.01 0.01 0.01 0.02 0.01 0.01 0.01 0.01 0.02 0.06 0.35 0.73 0.55 0.28 0.19 0.17 0.16 0.16 0.21 0.24 0.25 0.26 0.27 0.34 0.32 0.29 0.36 0.40 0.44 0.52 0.65 0.79 1.03 1.28 1.37 1.40
0.00 0.00 0.00 0.00 0.01 0.01 0.01 0.02 0.02 0.02 0.02 0.02 0.02 0.02 0.02 0.02 0.06 0.23 0.44 0.54 0.40 0.23 0.19 0.15 0.15 0.16 0.18 0.20 0.22 0.26 0.26 0.27 0.33 0.36 0.35 0.38 0.45 0.57 0.69 0.87 1.09 1.24 1.28
0.00 0.00 0.00 0.00 0.00 0.01 0.02 0.02 0.02 0.02 0.04 0.05 0.05 0.04 0.03 0.04 0.10 0.22 0.24 0.26 0.30 0.26 0.26 0.23 0.16 0.15 0.15 0.14 0.15 0.20 0.23 0.26 0.34 0.36 0.32 0.30 0.38 0.51 0.59 0.70 0.85 1.03 1.15
0.00 0.00 0.00 0.01 0.01 0.02 0.02 0.02 0.03 0.05 0.14 0.17 0.14 0.10 0.09 0.11 0.24 0.40 0.27 0.15 0.18 0.23 0.23 0.19 0.14 0.13 0.12 0.10 0.09 0.11 0.15 0.21 0.27 0.30 0.27 0.25 0.28 0.39 0.51 0.64 0.78 0.92 1.08
0.00 0.00 0.00 0.01 0.02 0.02 0.02 0.03 0.05 0.07 0.20 0.30 0.22 0.22 0.27 0.40 0.45 0.49 0.38 0.30 0.31 0.33 0.27 0.21 0.16 0.14 0.15 0.13 0.10 0.08 0.09 0.13 0.18 0.21 0.23 0.25 0.28 0.36 0.44 0.56 0.75 0.88 1.02
0.00 0.00 0.01 0.02 0.02 0.03 0.03 0.03 0.04 0.06 0.11 0.13 0.14 0.20 0.23 0.40 0.40 0.31 0.27 0.25 0.30 0.32 0.29 0.27 0.18 0.14 0.13 0.12 0.11 0.09 0.07 0.09 0.12 0.16 0.21 0.25 0.29 0.36 0.43 0.50 0.66 0.84 0.95
0.01 0.01 0.02 0.03 0.03 0.03 0.04 0.07 0.08 0.06 0.05 0.06 0.07 0.11 0.18 0.27 0.26 0.21 0.20 0.16 0.16 0.18 0.22 0.19 0.14 0.12 0.12 0.11 0.10 0.10 0.09 0.07 0.10 0.15 0.18 0.21 0.26 0.31 0.38 0.46 0.56 0.70 0.84
0.01 0.02 0.03 0.04 0.05 0.06 0.08 0.10 0.13 0.13 0.11 0.06 0.04 0.05 0.11 0.16 0.17 0.16 0.15 0.16 0.14 0.11 0.14 0.14 0.14 0.12 0.12 0.12 0.11 0.11 0.10 0.10 0.12 0.13 0.14 0.16 0.21 0.27 0.33 0.38 0.46 0.60 0.74
0.01 0.02 0.04 0.05 0.07 0.08 0.09 0.11 0.12 0.13 0.13 0.10 0.06 0.05 0.07 0.09 0.09 0.10 0.12 0.17 0.16 0.12 0.10 0.11 0.12 0.13 0.13 0.12 0.12 0.11 0.11 0.11 0.10 0.11 0.12 0.13 0.16 0.23 0.28 0.32 0.39 0.50 0.65
0.01 0.03 0.05 0.07 0.08 0.09 0.11 0.14 0.16 0.17 0.16 0.13 0.11 0.10 0.15 0.18 0.16 0.11 0.11 0.14 0.15 0.13 0.10 0.11 0.11 0.12 0.13 0.13 0.13 0.12 0.12 0.10 0.10 0.11 0.11 0.11 0.13 0.18 0.23 0.28 0.35 0.43 0.54
0.03 0.04 0.05 0.07 0.08 0.12 0.15 0.18 0.20 0.22 0.21 0.16 0.11 0.11 0.26 0.32 0.22 0.14 0.13 0.14 0.17 0.16 0.14 0.13 0.13 0.13 0.13 0.13 0.12 0.12 0.11 0.09 0.08 0.09 0.09 0.09 0.11 0.13 0.16 0.22 0.28 0.36 0.45
0.05 0.06 0.07 0.09 0.12 0.15 0.19 0.20 0.22 0.23 0.21 0.18 0.13 0.10 0.16 0.18 0.17 0.17 0.16 0.14 0.15 0.16 0.17 0.18 0.16 0.15 0.15 0.15 0.15 0.13 0.11 0.09 0.08 0.09 0.09 0.09 0.09 0.10 0.13 0.16 0.22 0.29 0.37
0.07 0.09 0.11 0.11 0.14 0.17 0.19 0.18 0.21 0.22 0.21 0.18 0.17 0.16 0.15 0.16 0.15 0.16 0.17 0.16 0.16 0.16 0.15 0.17 0.18 0.16 0.15 0.14 0.13 0.14 0.13 0.11 0.09 0.10 0.11 0.10 0.09 0.09 0.10 0.14 0.18 0.25 0.34
0.10 0.12 0.15 0.16 0.17 0.19 0.21 0.21 0.21 0.22 0.22 0.21 0.18 0.17 0.17 0.16 0.15 0.15 0.15 0.15 0.15 0.15 0.15 0.18 0.18 0.17 0.16 0.14 0.12 0.10 0.10 0.11 0.12 0.13 0.12 0.13 0.12 0.11 0.12 0.15 0.17 0.22 0.31
0.11 0.14 0.17 0.20 0.23 0.25 0.25 0.24 0.22 0.22 0.21 0.20 0.18 0.18 0.17 0.16 0.14 0.13 0.12 0.12 0.13 0.13 0.13 0.16 0.18 0.19 0.17 0.15 0.13 0.11 0.10 0.10 0.13 0.19 0.23 0.22 0.18 0.14 0.15 0.17 0.19 0.22 0.29
0.12 0.15 0.19 0.23 0.26 0.28 0.30 0.29 0.26 0.23 0.23 0.20 0.19 0.19 0.18 0.17 0.15 0.14 0.13 0.14 0.15 0.14 0.13 0.14 0.17 0.19 0.17 0.15 0.14 0.13 0.12 0.13 0.17 0.21 0.26 0.28 0.23 0.17 0.17 0.20 0.20 0.23 0.28